Flag for U.S.A. Weather past 2 weeks in San Bernardino, California, U.S.A.

Now
56 °F

Clear.


Feels Like: 56 °F
Forecast: 55 / 82 °F
Wind: No wind

Location: Riverside Municipal Airport


UV Index: 7 (High)

Visibility: 10 mi


Pressure: 30.00 "Hg

Humidity: 81%

Dew point: 50 °F

Location of San BernardinoLocation

Historic Weather in San Bernardino

°F

San Bernardino temperature yesterday

Maximum temperature yesterday: 79 °F (at 2:53 PM)
Minimum temperature yesterday: 53 °F (at 4:53 AM)
Average temperature yesterday: 65 °F

Past Weeks' High & Low Weather Summary

 TemperatureHumidityPressure
High93 °F (Apr 7, 2:53 PM)97% (Apr 16, 7:02 AM)30.08 "Hg (Apr 16, 7:02 AM)
Low47 °F (Apr 5, 5:53 AM)2% (Apr 9, 1:53 PM)29.73 "Hg (Apr 16, 3:53 PM)
Average67 °F47%29.92 "Hg
* Reported Apr 5 5:53 AM — Apr 20 5:53 AM, San Bernardino, Weather by CustomWeather, © 2014

Note: Actual official high and low records may vary slightly from our data, if they occured in-between our weather recording intervals... More about our weather records

Advertising

Historic Weather Conditions — Data for Previous 24 hours

 ConditionsComfort  
Time TempWeatherWind HumidityBarometerVisibility
5:53 AM
Apr 20
56 °FClear.No wind81%30.00 "Hg10 mi
4:53 AM56 °FClear.3 mph81%29.99 "Hg10 mi
3:53 AM57 °FClear.No wind81%30.00 "Hg10 mi
2:53 AM58 °FClear.No wind78%30.00 "Hg10 mi
1:53 AM59 °FClear.3 mph75%30.00 "Hg10 mi
12:53 AM61 °FClear.3 mph72%30.01 "Hg10 mi
11:53 PM
Apr 19
62 °FClear.No wind70%30.01 "Hg10 mi
10:53 PM63 °FClear.No wind68%30.01 "Hg10 mi
9:53 PM64 °FClear.3 mph68%30.00 "Hg10 mi
8:53 PM65 °FClear.7 mph66%29.98 "Hg10 mi
7:53 PM67 °FSunny.8 mph59%29.95 "Hg10 mi
6:53 PM71 °FSunny.7 mph51%29.93 "Hg10 mi
5:53 PM75 °FSunny.9 mph43%29.92 "Hg10 mi
4:53 PM78 °FSunny.9 mph40%29.90 "Hg10 mi
3:53 PM79 °FSunny.9 mph38%29.90 "Hg10 mi
2:53 PM79 °FSunny.7 mph38%29.91 "Hg10 mi
1:53 PM78 °FSunny.9 mph39%29.93 "Hg10 mi
12:53 PM76 °FSunny.12 mph43%29.94 "Hg10 mi
11:53 AM72 °FSunny.6 mph49%29.96 "Hg10 mi
10:53 AM68 °FSunny.6 mph57%29.96 "Hg10 mi
9:53 AM64 °FSunny.No wind65%29.96 "Hg10 mi
8:53 AM60 °FSunny.No wind72%29.95 "Hg10 mi
7:53 AM57 °FSunny.No wind81%29.95 "Hg10 mi
Weather by CustomWeather, © 2014

See weather overview